Regional Weather Roundup
Issued by NWS

Home | Current Version | Previous Version | Graphics & Text | Print | Product List | Glossary On
Versions: 1 2 3 4 5 6 7 8 9 10 11 12 13 14 15 16 17 18 19 20 21 22 23 24 25 26 27 28 29 30 31 32 33 34 35 36 37 38 39 40 41 42 43 44 45 46 47 48 49 50
000
ASUS45 KBOU 291107
RWRCO

WEATHER ROUNDUP FOR COLORADO
NATIONAL WEATHER SERVICE DENVER/BOULDER CO
500 AM MDT MON SEP 29 2014

NOTE: "FAIR" INDICATES FEW OR NO CLOUDS BELOW 12000 FEET WITH NO
SIGNIFICANT WEATHER AND/OR OBSTRUCTIONS TO VISIBILITY.

COZ001>005-013-030-031-291200-
...NORTHWEST COLORADO...

CITY           SKY/WX    TMP DP  RH WIND       PRES   REMARKS
CRAIG          MOCLDY    47  42  83 E8        30.09S
HAYDEN         MOCLDY    45  39  81 SE7       30.10S
MEEKER         PTCLDY    44  40  85 E5        30.08F
MOUNT WERNER   NOT AVBL
STEAMBOAT SPGS NOT AVBL
WALDEN         CLOUDY    41  37  87 SE7       30.16F
$$

COZ006>008-011-291200-
...WEST CENTRAL VALLEYS...

CITY           SKY/WX    TMP DP  RH WIND       PRES   REMARKS
GRAND JUNCTION PTCLDY    46  45  96 SE8       30.03S
MONTROSE       MOCLDY    48  47  96 CALM      30.09F
EAGLE          CLOUDY    46  46 100 S3        30.14S
RIFLE          PTCLDY    46  44  93 SW5       30.07F
DELTA          HVY RAIN  49  48  95 E5        30.07S
NUCLA          PTCLDY    45  45 100 SE6       30.11S
$$

COZ017>023-064>068-291200-
...SOUTHWEST COLORADO...

CITY           SKY/WX    TMP DP  RH WIND       PRES   REMARKS
DURANGO        CLOUDY    52  50  93 E3        30.14R
CORTEZ         CLEAR     43  42  97 CALM      30.09S
PAGOSA SPRINGS NOT AVBL
TELLURIDE      NOT AVBL
WOLF CREEK PAS NOT AVBL
$$

COZ009-010-012-014-032>034-037-058>063-291200-
...CENTRAL COLORADO...

CITY           SKY/WX    TMP DP  RH WIND       PRES   REMARKS
ASPEN          PTCLDY    40  38  93 CALM      30.14F
BUENA VISTA    DRIZZLE   47  45  90 CALM      30.17F
COPPER MTN     FOG       37  34  87 S6        30.33F VSB<1/4
BERTHOUD PASS  FOG       30  28  93 NW15      30.36F VSB<1/4 WCI  19
COTTONWOOD PAS DRIZZLE   45  41  87 CALM      30.25F
GUNNISON       MOCLDY    45  39  81 N7        30.17F
KREMMLING      CLOUDY    45  41  87 E6        30.16F
LEADVILLE      NOT AVBL
SALIDA         MOCLDY    51  47  86 NW3       30.22F
SUNLIGHT       CLOUDY    37  37 100 CALM      30.28F FOG
WILKERSON PASS NOT AVBL
$$

COZ069>075-291200-
...SAN LUIS VALLEY/SANGRE DE CRISTO MOUNTAINS...

CITY           SKY/WX    TMP DP  RH WIND       PRES   REMARKS
ALAMOSA        MOCLDY    49  47  93 N3        30.16R
LA VETA PASS   MOCLDY    45  41  87 S14G24    30.27S
SAGUACHE       MOCLDY    46  45  93 NW5       30.19R
$$

COZ035-036-038>040-291200-
...NORTHERN COLORADO FRONT RANGE...

CITY           SKY/WX    TMP DP  RH WIND       PRES   REMARKS
DENVER INTL AP MOCLDY    52  48  86 N7        30.04F
DMNS CITY PARK   N/A     53  49  86 N5        30.04F
AURORA         MOCLDY    51  51  99 NW3       30.06F
FRONT RANGE AP MOCLDY    54  52  94 N7        30.05F
ERIE MUNI ARPT NOT AVBL
BOULDER MUN AP CLOUDY    54  52  94 CALM      30.04S
CENTENNIAL     MOCLDY    53  49  86 N5        30.06S
BROOMFIELD     MOCLDY    52  50  93 N7        30.06F
FORT COLLINS   CLOUDY    55  48  76 CALM      30.05S
LONGMONT       LGT RAIN  56  52  88 W5        30.05F
$$

COZ041-046-047-076>085-087-088-291200-
...PIKES PEAK/PALMER DIVIDE AND SOUTHERN FOOTHILLS...

CITY           SKY/WX    TMP DP  RH WIND       PRES   REMARKS
COLO. SPRINGS  MOCLDY    56  51  84 NW7       30.06S
A. F. ACADEMY  PTCLDY    51  49  95 NW8       30.08S
ELLICOTT       NOT AVBL
FALCON         CLOUDY    52  49  92 N13       30.09S
FORT CARSON    MOCLDY    56  51  84 NW12      30.03R
LIMON          PTCLDY    49  49 100 N6        30.05R FOG
MONUMENT HILL  CLOUDY    46  46 100 W6        30.10S FOG
TRINIDAD       CLEAR     61  51  70 W16       30.03S
$$

COZ042>045-048>051-090-091-291200-
...NORTHEAST COLORADO...

CITY           SKY/WX    TMP DP  RH WIND       PRES   REMARKS
GREELEY ARPT   CLOUDY    55  46  71 N7        30.04R
AKRON          MOCLDY    58  52  80 SW14      30.01S
BURLINGTON     PTCLDY    59  52  77 S15       30.00F
WRAY           MOCLDY    62  53  71 SE12      29.99F
STERLING       MOCLDY    63  54  72 S8        29.97S
HOLYOKE        NOT AVBL
FORT MORGAN    MOCLDY    52  51  95 W6        29.99F
$$

COZ086-089-092>099-291200-
...SOUTHEAST COLORADO...

CITY           SKY/WX    TMP DP  RH WIND       PRES   REMARKS
PUEBLO         PTCLDY    57  50  77 W5        29.98R
LA JUNTA       CLEAR     59  51  75 S6        29.96S
LAMAR          CLEAR     63  54  72 S16       29.96F
SPRINGFIELD      N/A     59  54  83 S20       30.04S
$$



USA.gov is the U.S. government's official web portal to all federal, state and local government web resources and services.